Regional Weather Roundup
Issued by NWS State College, PA

Home | Current Version | Previous Version | Text Only | Print | Product List | Glossary Off
Versions: 1 2 3 4 5 6 7 8 9 10 11 12 13 14 15 16 17 18 19 20 21 22 23 24 25 26 27 28 29 30 31 32 33 34 35 36 37 38 39 40 41 42 43 44 45 46 47 48 49 50

000
ASUS41 KCTP 310710
RWRCTP

REGIONAL WEATHER ROUNDUP
NATIONAL WEATHER SERVICE STATE COLLEGE PA
300 AM EDT FRI OCT 31 2014

Note: "fair" indicates few or no clouds below 12,000 feet with no
significant weather and/or obstructions to visibility.

* = STATION THAT DOES NOT REPORT PRECIPITATION /E.G. RAIN...SNOW...ETC/
    THUNDER OR FOG.

PAZ002>004-007>009-013>016-020>023-029>032-310800-
WESTERN PENNSYLVANIA

CITY           SKY/WX    TMP DP  RH WIND       PRES   REMARKS
ERIE           CLOUDY    41  36  82 S7        29.99F
MEADVILLE      CLOUDY    41  36  82 S3        29.98F
FRANKLIN*      CLOUDY    37  36  93 CALM      30.00F
NEW CASTLE       N/A     42  38  86 CALM      30.01F
BEAVER COUNTY  NOT AVBL
BUTLER*        CLOUDY    43  36  75 CALM      30.01F
PITTSBURGH INT CLOUDY    44  38  79 S3        29.99F
PITTSBURGH     CLOUDY    45  34  65 W3        29.99F
INDIANA*       CLOUDY    43  41  93 CALM      30.03F
LATROBE        CLOUDY    45  41  87 CALM      30.02F
WASHINGTON CO* CLOUDY    43  37  81 CALM      30.01F
$$

PAZ004>006-010>012-017>019-024>028-033>037-041-042-045-046-049>053-310800-
CENTRAL PENNSYLVANIA

CITY           SKY/WX    TMP DP  RH WIND       PRES   REMARKS
BRADFORD       CLOUDY    37  34  89 CALM      29.98S
DUBOIS         CLOUDY    40  37  89 SE3       29.97F
CLEARFIELD     CLOUDY    41  36  82 CALM      30.00F
JOHNSTOWN      CLOUDY    40  36  86 S3        29.97F
ALTOONA        CLOUDY    43  39  86 CALM      30.00F
STATE COLLEGE  CLOUDY    39  37  91 CALM      30.00F
WILLIAMSPORT   PTCLDY    34  30  85 W3        30.03S
SELINSGROVE    CLEAR     36  34  92 N3        30.03S
FT INDIANTOWN  CLOUDY    44  39  81 SE2       30.02F
CAPITAL CITY   CLOUDY    47  40  76 CALM      30.03S
HARRISBURG     CLOUDY    47  38  71 CALM      30.02S
YORK           CLOUDY    45  41  86 CALM      30.02S
$$

PAZ038>040-043-044-047-048-054-055-060>062-067>071-310800-
EASTERN PENNSYLVANIA

CITY           SKY/WX    TMP DP  RH WIND       PRES   REMARKS
SCRANTON       CLEAR     35  29  78 E7        30.02S
MOUNT POCONO   CLEAR     28  26  92 CALM      29.99F
ALLENTOWN      CLEAR     32  29  88 NW3       30.03F
QUAKERTOWN*    SUNNY     32  30  93 CALM      30.03S
READING        PTCLDY    37  33  85 CALM      30.02F
LANCASTER      CLOUDY    45  37  73 CALM      30.02S
COATESVILLE    CLOUDY    43  36  75 CALM      30.02F
POTTSTOWN      CLEAR     33  31  92 CALM      30.04S
BLUE BELL      CLEAR     34  34 100 CALM      30.02S
DOYLESTOWN     CLEAR     34  33  96 CALM      30.02S
WILLOW GROVE   NOT AVBL
NORTH PHILA    CLEAR     41  32  70 CALM      30.04F
PHILADELPHIA   CLEAR     42  34  73 N3        30.03F
$$



USA.gov is the U.S. government's official web portal to all federal, state and local government web resources and services.